sat.trackr.live / text

‹ back to catalog

STARLINK-30157

NORAD 57512 · 2023-113T

PAYLOAD ACTIVE UNKNOWN

§ Identity

Operator
Country
US
Launch date
2023-08-07
Launch site
AFETR
Launch vehicle
Mass (kg)
RCS (m²)

Purposes: comms

External: N2YO · Heavens-Above · Gunter

§ Orbital elements

Epoch: 2026-05-24T18:46:07.580352Z

Period
94.27 min
Inclination
43.0034°
Eccentricity
0.0002222
Mean motion
15.27576083 rev/d
Perigee alt
481.5 km
Apogee alt
484.6 km
Semi-major
6,861.2 km
B*
7.2317e-5
RAAN
280.5499°
Arg perigee
284.2754°
Mean anomaly
75.7851°
Rev number
15,561

§ Raw data

STARLINK-301571 57512U 23113T   26144.78203218  .00001728  00000+0  72317-4 0  99992 57512  43.0034 280.5499 0002222 284.2754  75.7851 15.27576083155618

JSON: /api/v1/satellites/57512 · /tle

For live sub-satellite position, see the globe view (requires WebGL).

§ Visibility from observer

Set your observer location to see the next 7 days of passes ≥ 10°. The values pass through the URL so the page stays shareable.

No JS? Fill the form by hand. The geolocation button needs JavaScript.